Location: Fort Collins
(40.5850°N, 105.0840°W)
Time: 12:10:05
(UTC-07:00)

Daily predictions for brighter satellites

Satellite Brightness Start Highest point End
(mag) Time Altitude Azimuth Time Altitude Azimuth Time Altitude Azimuth
Cosmos 1833 4.2 18:06:39 10° SSW 18:12:19 71° ESE 18:17:57 10° NNE
ALOS 3.3 18:10:03 10° ESE 18:13:52 25° ENE 18:17:40 10° NNE
SL-16 R/B 3.4 18:12:11 10° NW 18:17:38 49° WSW 18:23:04 10° S
Cosmos 2333 Rocket 3.8 18:16:06 10° N 18:19:46 17° NE 18:23:25 10° E
SKYMED 2 3.9 18:16:43 10° N 18:21:04 73° WNW 18:25:22 10° SSW
Abrixas rocket 2.9 18:19:24 10° SSW 18:22:32 38° SE 18:25:42 10° ENE
Tiangong 2 3.8 18:23:35 10° WSW 18:25:34 16° SW 18:27:31 10° S
FREGAT/IRIS 3.2 18:22:46 10° SE 18:25:40 38° ENE 18:28:34 10° N
Meteor 1-28 Rocket 3.4 18:22:00 10° N 18:25:48 77° WNW 18:29:37 10° SSW
NOAA 12 4.1 18:24:20 10° SSE 18:29:36 72° ENE 18:34:56 10° N
Genesis I 3.5 18:26:26 10° NNW 18:30:16 46° NE 18:34:03 10° SE
FENGYUN 3A 4.1 18:26:10 10° SE 18:31:10 40° ENE 18:36:11 10° N
Cosmos 2322 Rocket 4.0 18:27:22 10° NW 18:32:25 35° WSW 18:37:28 10° S
Cosmos 1741 Rocket 4.2 18:27:58 10° S 18:32:58 48° ESE 18:37:59 10° NNE
GPS 2-04 Rocket1 3.9 18:29:10 10° SW 18:33:00 33° SSE 18:36:30 12° ESE
Cosmos 1536 Rocket 3.9 18:29:58 10° NNW 18:34:25 72° W 18:38:52 10° S
Okean 1-7 Rocket 4.1 18:30:28 10° N 18:34:41 38° ENE 18:38:51 10° SE
Cosmos 1633 2.6 18:34:43 10° S 18:38:24 84° W 18:42:06 10° N
GEOS 3 Rocket 4.4 18:33:58 10° NE 18:38:38 32° ESE 18:43:18 10° S
FengYun 1-2 T 4.3 18:40:39 10° SE 18:45:57 53° ENE 18:51:18 10° N
Hubble Space Telescope 3.2 18:44:56 10° S 18:46:01 11° SSE 18:47:05 10° SSE
Cosmos 1140 Rocket 3.7 18:41:18 10° SSW 18:46:25 75° WNW 18:51:36 10° NNE
METEOR-M 4.3 18:42:48 10° S 18:48:08 79° WSW 18:53:31 10° NNW
Cosmos 614 Rocket 3.9 18:44:23 10° SSW 18:49:27 87° ESE 18:54:33 10° NNE
SJ-6B 2.7 18:45:36 10° SSE 18:49:36 85° ENE 18:53:31 10° N
Cosmos 1570 Rocket 3.9 18:45:57 10° NNW 18:51:10 67° ENE 18:56:22 10° SSE
Cosmos 2322 4.0 18:46:53 10° NNW 18:52:36 75° WSW 18:58:16 10° SSE
Meteor 1-19 Rocket 4.4 18:51:27 10° NNW 18:57:10 80° W 19:02:57 10° S
Cosmos 405 Rocket 3.8 18:54:43 10° NNE 18:58:08 25° ENE 18:58:51 24° E
Cosmos 1300 Rocket 4.2 18:55:03 10° SSW 18:59:25 60° W 19:03:49 10° N
CZ-2D R/B 3.9 18:59:21 20° ESE 19:01:23 34° ENE 19:04:51 10° N
Helios 1A 3.8 19:00:23 24° ESE 19:01:45 29° ENE 19:05:20 10° N
H-2A R/B 2.9 18:58:56 10° SSE 19:02:30 47° ENE 19:06:07 10° N
Okean 2 3.9 18:58:48 10° N 19:02:42 37° ENE 19:05:39 16° SE
Intercosmos 24 4.5 18:59:04 10° S 19:03:18 59° E 19:09:28 10° NNE
BREEZE-M DEB (TANK) 4.4 19:00:00 10° WNW 19:03:21 53° NNE 19:11:59 20° E
Helios 1B rocket 3.2 19:02:38 10° NE 19:06:18 29° E 19:09:55 10° SSE
Spot 2 Rocket 3.4 19:02:29 10° SSE 19:07:29 64° ENE 19:12:30 10° N
Cosmos 2237 Rocket 3.1 19:03:45 10° N 19:08:37 28° NE 19:10:07 25° E
Cosmos 2333 4.2 19:03:47 10° NNW 19:09:32 70° ENE 19:15:16 10° SSE
Gbstr 26 Del rocket 3.6 19:05:59 10° WSW 19:09:38 42° NNW 19:12:04 18° NE
Cosmos 2237 4.3 19:04:36 10° NNW 19:10:21 80° WSW 19:16:03 10° SSE
COSMOS 2428 2.6 19:04:39 10° NNW 19:10:23 81° ENE 19:16:04 10° SSE
Cosmos 2297 Rocket 3.8 19:06:49 10° SE 19:08:18 15° SE 19:08:18 15° SE
USA 229 DEB 3.8 19:04:27 10° NNW 19:11:35 67° NE 19:17:25 17° SE
USA 229 3.8 19:04:33 10° NNW 19:11:40 66° NE 19:17:27 17° SE
Cosmos 1238 Rocket 4.3 19:09:26 10° NNW 19:12:02 28° W 19:14:42 10° SSW
Resurs 01 Rocket 1.5 19:09:15 10° SSE 19:13:38 78° ENE 19:18:04 10° N
Meteor 2-4 Rocket 3.7 19:09:24 10° NNW 19:14:57 79° W 19:20:18 10° S
Meteor 1-23 Rocket 4.2 19:12:22 10° N 19:18:12 89° E 19:23:56 10° S
Cosmos 1536 3.5 19:15:10 10° SSW 19:19:05 54° W 19:23:00 10° N
Atlas Centaur 2 4.3 19:16:38 10° S 19:19:46 13° SSE 19:21:05 13° SE
BREEZE-M DEB (TANK) 2.4 19:17:06 10° WNW 19:19:47 88° NNE 19:22:41 27° ESE
Cosmos 2208 Rocket 4.3 19:15:31 10° NNW 19:20:58 73° WSW 19:26:19 10° S
HJ-1C 4.1 19:18:04 10° S 19:21:22 54° W 19:24:42 10° NNW
Cosmos 2360 Rocket 3.8 19:16:43 10° NW 19:21:51 36° WSW 19:26:58 10° S
SL-19 R/B 4.4 19:16:47 10° SSE 19:22:28 88° WSW 19:28:35 10° NNW
Cosmos 2219 Rocket 2.2 19:16:59 10° NNW 19:22:31 57° ENE 19:25:25 28° SE
Cosmos 1814 Rocket 4.5 19:18:28 10° N 19:23:14 36° ENE 19:23:49 35° E
Envisat 3.8 19:24:18 30° ENE 19:24:18 30° ENE 19:28:27 10° N
Cosmos 1610 Rocket 4.4 19:18:19 10° S 19:24:27 63° E 19:30:32 10° NNE
Resurs 1-3 3.5 19:22:00 10° SSE 19:26:23 89° E 19:30:48 10° NNW
Cosmos 2219 3.6 19:21:51 10° SSW 19:27:34 67° WNW 19:33:18 10° NNE
Cosmos 2227 Rocket 2.5 19:25:39 10° S 19:30:52 40° ESE 19:31:29 39° E
OTV 4 2.7 19:32:29 10° SW 19:33:37 17° SSW 19:33:37 17° SSW
NOSS 3-1 (C) 4.2 19:35:18 10° NNW 19:42:39 52° NE 19:45:20 39° E
Spot 1 3.8 19:42:13 56° SSE 19:43:03 90° ESE 19:47:14 10° NNW
Cosmos 1892 Rocket 3.4 19:38:44 10° N 19:43:07 84° E 19:44:05 54° SSE
SL-16 R/B 3.6 19:39:06 10° N 19:42:32 22° NE 19:42:32 22° NE
SAR-Lupe-1 4.4 19:44:23 60° NNW 19:44:23 60° NNW 19:47:23 10° NNW
SAR-Lupe-4 3.7 19:44:20 68° SW 19:44:30 70° WSW 19:48:05 10° NNW
Cosmos 1025 Rocket 4.3 19:45:10 10° NNW 19:49:18 41° W 19:53:25 10° SSW
ALOS 4.0 19:46:59 10° SSW 19:51:09 32° W 19:55:21 10° NNW
Abrixas rocket 4.1 19:56:16 10° W 19:58:29 30° WNW 19:58:29 30° WNW
Cosmos 2333 Rocket 2.2 19:58:59 10° NNW 20:04:45 82° WSW 20:05:58 57° S
Cosmos 841 Rocket 4.5 20:01:29 10° N 20:04:39 34° NNE 20:04:39 34° NNE
Cosmos 1544 Rocket 4.0 20:02:23 10° SSW 20:06:38 58° W 20:10:55 10° N
Cosmos 1980 3.5 20:02:11 10° NNW 20:07:52 86° ENE 20:08:02 83° ESE
ATLAS CENTAUR R/B 3.9 20:08:31 10° SW 20:09:45 17° WSW 20:09:45 17° WSW
GPS 2-04 Rocket1 4.4 20:08:25 10° WSW 20:11:01 31° SW 20:11:01 31° SW
Nadezhda 3 Rocket 4.0 20:07:22 10° N 20:13:32 77° W 20:16:26 33° S
Cosmos 1763 Rocket 4.1 20:12:51 10° NNW 20:16:28 46° N 20:16:28 46° N
Cosmos 2341 Rocket 4.0 20:14:51 10° S 20:21:13 84° W 20:27:39 10° N
Cosmos 2154 Rocket 4.5 20:17:40 10° SSW 20:23:55 60° W 20:30:13 10° N
NOSS 0 Rocket 4.3 20:18:49 10° NNW 20:24:50 58° WSW 20:26:11 48° SSW
Cosmos 2082 4.5 20:26:38 10° SSW 20:30:32 45° SW 20:30:32 45° SW
Cosmos 2237 Rocket 3.3 20:47:27 10° NW 20:52:00 41° W 20:52:00 41° W
Cosmos 2297 Rocket 4.2 20:48:54 10° SW 20:50:18 18° SW 20:50:18 18° SW
Cosmos 2219 Rocket 4.4 21:02:07 10° NW 21:05:57 19° W 21:07:13 18° WSW
Cosmos 2227 Rocket 4.0 21:10:07 10° WSW 21:13:32 26° W 21:13:32 26° W
NOSS 3-1 (A) 4.4 21:07:47 10° NW 21:14:17 60° W 21:14:17 60° W
ATLAS 2AS CENTAUR R/B 4.1 21:13:43 10° NNW 21:18:44 36° N 21:18:44 36° N
SL-16 R/B 4.3 21:22:33 10° NNW 21:24:27 21° NW 21:24:27 21° NW
